Time,TemperatureF,DewpointF,PressureIn,WindDirection,WindDirectionDegrees,WindSpeedMPH,WindSpeedGustMPH,Humidity,HourlyPrecipIn,Conditions,Clouds,dailyrainin,SoftwareType,DateUTC
2013-04-06 00:00:00,44.4,18.5,30.04,North,350,1.0,5.0,35,0.00,,,0.00,meteohub,2013-04-06 04:00:00,
2013-04-06 00:05:00,44.1,18.9,30.05,NNW,338,3.0,3.0,36,0.00,,,0.00,meteohub,2013-04-06 04:05:00,
2013-04-06 00:10:00,43.9,19.9,30.05,NNW,341,2.0,5.0,38,0.00,,,0.00,meteohub,2013-04-06 04:10:00,
2013-04-06 00:15:00,43.3,19.4,30.05,NW,308,3.0,5.0,38,0.00,,,0.00,meteohub,2013-04-06 04:15:00,
2013-04-06 00:21:00,43.2,20.5,30.05,NW,326,4.0,7.0,40,0.00,,,0.00,meteohub,2013-04-06 04:21:00,
2013-04-06 00:26:00,43.0,20.3,30.05,NW,305,3.0,7.0,40,0.00,,,0.00,meteohub,2013-04-06 04:26:00,
2013-04-06 00:31:00,43.0,20.3,30.06,NNW,339,2.0,7.0,40,0.00,,,0.00,meteohub,2013-04-06 04:31:00,
2013-04-06 00:36:00,42.6,20.5,30.06,NNW,341,0.0,7.0,41,0.00,,,0.00,meteohub,2013-04-06 04:36:00,
2013-04-06 00:42:00,42.4,21.0,30.07,NNW,341,5.0,7.0,42,0.00,,,0.00,meteohub,2013-04-06 04:42:00,
2013-04-06 00:47:00,42.3,21.4,30.07,NW,311,3.0,6.0,43,0.00,,,0.00,meteohub,2013-04-06 04:47:00,
2013-04-06 00:52:00,42.1,21.2,30.07,NNW,332,4.0,8.0,43,0.00,,,0.00,meteohub,2013-04-06 04:52:00,
2013-04-06 00:57:00,41.7,20.3,30.08,North,350,2.0,8.0,42,0.00,,,0.00,meteohub,2013-04-06 04:57:00,
2013-04-06 01:02:00,41.5,20.1,30.08,NW,308,5.0,9.0,42,0.00,,,0.00,meteohub,2013-04-06 05:02:00,
2013-04-06 01:07:00,41.4,19.9,30.08,North,355,3.0,9.0,42,0.00,,,0.00,meteohub,2013-04-06 05:07:00,
2013-04-06 01:12:00,41.2,19.2,30.09,NW,312,4.0,9.0,41,0.00,,,0.00,meteohub,2013-04-06 05:12:00,
2013-04-06 01:17:00,41.2,19.8,30.09,WNW,287,1.0,9.0,42,0.00,,,0.00,meteohub,2013-04-06 05:17:00,
2013-04-06 01:22:00,40.8,19.6,30.09,NW,313,2.0,9.0,42,0.00,,,0.00,meteohub,2013-04-06 05:22:00,
2013-04-06 01:27:00,40.6,19.4,30.09,NW,314,1.0,9.0,42,0.00,,,0.00,meteohub,2013-04-06 05:27:00,
2013-04-06 01:32:00,40.5,19.2,30.09,NW,321,4.0,6.0,42,0.00,,,0.00,meteohub,2013-04-06 05:32:00,
2013-04-06 01:37:00,40.3,19.0,30.09,NW,319,5.0,6.0,42,0.00,,,0.00,meteohub,2013-04-06 05:37:00,
2013-04-06 01:42:00,40.3,19.6,30.09,North,10,3.0,8.0,43,0.00,,,0.00,meteohub,2013-04-06 05:42:00,
2013-04-06 01:47:00,39.9,19.2,30.09,NNW,328,3.0,8.0,43,0.00,,,0.00,meteohub,2013-04-06 05:47:00,
2013-04-06 01:52:00,39.7,19.0,30.10,NW,319,6.0,8.0,43,0.00,,,0.00,meteohub,2013-04-06 05:52:00,
2013-04-06 01:57:00,39.7,19.6,30.10,WNW,294,7.0,10.0,44,0.00,,,0.00,meteohub,2013-04-06 05:57:00,
2013-04-06 02:02:00,39.6,19.4,30.10,NW,306,3.0,10.0,44,0.00,,,0.00,meteohub,2013-04-06 06:02:00,
2013-04-06 02:07:00,39.4,19.2,30.10,NW,314,4.0,10.0,44,0.00,,,0.00,meteohub,2013-04-06 06:07:00,
2013-04-06 02:12:00,39.2,19.6,30.10,NW,324,3.0,8.0,45,0.00,,,0.00,meteohub,2013-04-06 06:12:00,
2013-04-06 02:18:00,39.0,19.4,30.11,NNW,331,3.0,8.0,45,0.00,,,0.00,meteohub,2013-04-06 06:18:00,
2013-04-06 02:23:00,38.8,19.4,30.11,North,11,1.0,7.0,45,0.00,,,0.00,meteohub,2013-04-06 06:23:00,
2013-04-06 02:28:00,38.8,19.4,30.11,WNW,302,3.0,6.0,45,0.00,,,0.00,meteohub,2013-04-06 06:28:00,
2013-04-06 02:33:00,38.7,20.1,30.11,North,349,7.0,7.0,47,0.00,,,0.00,meteohub,2013-04-06 06:33:00,
2013-04-06 02:38:00,38.7,19.6,30.11,NW,304,6.0,10.0,46,0.00,,,0.00,meteohub,2013-04-06 06:38:00,
2013-04-06 02:43:00,38.7,19.6,30.11,NW,306,5.0,10.0,46,0.00,,,0.00,meteohub,2013-04-06 06:43:00,
2013-04-06 02:48:00,38.7,19.6,30.11,NW,315,3.0,10.0,46,0.00,,,0.00,meteohub,2013-04-06 06:48:00,
2013-04-06 02:53:00,38.5,19.6,30.11,NW,317,2.0,9.0,46,0.00,,,0.00,meteohub,2013-04-06 06:53:00,
2013-04-06 02:58:00,38.5,19.9,30.12,NNW,328,2.0,9.0,47,0.00,,,0.00,meteohub,2013-04-06 06:58:00,
2013-04-06 03:03:00,38.1,19.6,30.12,WNW,301,2.0,8.0,47,0.00,,,0.00,meteohub,2013-04-06 07:03:00,
2013-04-06 03:08:00,37.9,19.6,30.12,NNW,341,2.0,7.0,47,0.00,,,0.00,meteohub,2013-04-06 07:08:00,
2013-04-06 03:13:00,37.8,20.3,30.12,NW,319,3.0,7.0,49,0.00,,,0.00,meteohub,2013-04-06 07:13:00,
2013-04-06 03:18:00,37.6,19.6,30.12,WNW,297,2.0,6.0,48,0.00,,,0.00,meteohub,2013-04-06 07:18:00,
2013-04-06 03:23:00,37.6,19.6,30.12,NW,313,4.0,10.0,48,0.00,,,0.00,meteohub,2013-04-06 07:23:00,
2013-04-06 03:28:00,37.6,19.6,30.12,NW,323,5.0,10.0,48,0.00,,,0.00,meteohub,2013-04-06 07:28:00,
2013-04-06 03:33:00,37.4,19.6,30.13,WNW,302,4.0,10.0,48,0.00,,,0.00,meteohub,2013-04-06 07:33:00,
2013-04-06 03:39:00,37.0,19.2,30.13,NW,306,3.0,6.0,48,0.00,,,0.00,meteohub,2013-04-06 07:39:00,
2013-04-06 03:44:00,37.0,19.6,30.13,NW,315,2.0,5.0,49,0.00,,,0.00,meteohub,2013-04-06 07:44:00,
2013-04-06 03:49:00,36.9,19.4,30.13,WNW,301,3.0,5.0,49,0.00,,,0.00,meteohub,2013-04-06 07:49:00,
2013-04-06 03:54:00,36.9,19.4,30.13,NNW,334,5.0,5.0,49,0.00,,,0.00,meteohub,2013-04-06 07:54:00,
2013-04-06 03:59:00,36.7,19.4,30.14,NW,317,1.0,6.0,49,0.00,,,0.00,meteohub,2013-04-06 07:59:00,
2013-04-06 04:04:00,36.5,19.6,30.14,NW,304,4.0,6.0,50,0.00,,,0.00,meteohub,2013-04-06 08:04:00,
2013-04-06 04:09:00,36.3,19.4,30.14,NW,323,6.0,6.0,50,0.00,,,0.00,meteohub,2013-04-06 08:09:00,
2013-04-06 04:14:00,36.3,19.4,30.14,NW,309,2.0,6.0,50,0.00,,,0.00,meteohub,2013-04-06 08:14:00,
2013-04-06 04:19:00,36.3,19.9,30.15,NW,324,4.0,6.0,51,0.00,,,0.00,meteohub,2013-04-06 08:19:00,
2013-04-06 04:24:00,36.3,19.4,30.15,NW,321,3.0,6.0,50,0.00,,,0.00,meteohub,2013-04-06 08:24:00,
2013-04-06 04:29:00,36.1,19.8,30.15,NW,306,3.0,7.0,51,0.00,,,0.00,meteohub,2013-04-06 08:29:00,
2013-04-06 04:34:00,36.1,19.8,30.15,NW,317,3.0,7.0,51,0.00,,,0.00,meteohub,2013-04-06 08:34:00,
2013-04-06 04:39:00,36.0,20.1,30.15,WNW,303,4.0,7.0,52,0.00,,,0.00,meteohub,2013-04-06 08:39:00,
2013-04-06 04:44:00,35.8,19.9,30.16,NW,314,2.0,7.0,52,0.00,,,0.00,meteohub,2013-04-06 08:44:00,
2013-04-06 04:50:00,35.8,19.4,30.16,NW,319,4.0,7.0,51,0.00,,,0.00,meteohub,2013-04-06 08:50:00,
2013-04-06 04:55:00,35.8,19.9,30.16,NNW,333,5.0,7.0,52,0.00,,,0.00,meteohub,2013-04-06 08:55:00,
2013-04-06 05:00:00,35.8,19.9,30.16,WNW,301,2.0,7.0,52,0.00,,,0.00,meteohub,2013-04-06 09:00:00,
2013-04-06 05:05:00,35.8,19.9,30.16,NW,319,3.0,7.0,52,0.00,,,0.00,meteohub,2013-04-06 09:05:00,
2013-04-06 05:10:00,35.8,19.9,30.17,NNW,334,1.0,6.0,52,0.00,,,0.00,meteohub,2013-04-06 09:10:00,
2013-04-06 05:15:00,35.6,19.8,30.17,North,350,3.0,6.0,52,0.00,,,0.00,meteohub,2013-04-06 09:15:00,
2013-04-06 05:20:00,35.4,19.9,30.17,NNW,332,1.0,6.0,53,0.00,,,0.00,meteohub,2013-04-06 09:20:00,
2013-04-06 05:25:00,35.4,19.9,30.18,NNW,331,2.0,6.0,53,0.00,,,0.00,meteohub,2013-04-06 09:25:00,
2013-04-06 05:30:00,35.2,19.8,30.18,NW,317,3.0,5.0,53,0.00,,,0.00,meteohub,2013-04-06 09:30:00,
2013-04-06 05:35:00,35.2,20.3,30.18,NW,321,4.0,5.0,54,0.00,,,0.00,meteohub,2013-04-06 09:35:00,
2013-04-06 05:40:00,35.1,20.1,30.18,NNW,330,2.0,6.0,54,0.00,,,0.00,meteohub,2013-04-06 09:40:00,
2013-04-06 05:45:00,34.9,19.9,30.19,NW,320,3.0,6.0,54,0.00,,,0.00,meteohub,2013-04-06 09:45:00,
2013-04-06 05:50:00,34.9,19.9,30.19,NW,321,4.0,6.0,54,0.00,,,0.00,meteohub,2013-04-06 09:50:00,
2013-04-06 05:55:00,34.9,20.3,30.19,NNE,16,4.0,8.0,55,0.00,,,0.00,meteohub,2013-04-06 09:55:00,
2013-04-06 06:00:00,34.7,20.1,30.20,NNW,331,3.0,8.0,55,0.00,,,0.00,meteohub,2013-04-06 10:00:00,
2013-04-06 06:05:00,34.5,19.9,30.20,NNW,332,1.0,8.0,55,0.00,,,0.00,meteohub,2013-04-06 10:05:00,
2013-04-06 06:10:00,34.3,20.3,30.20,WNW,290,3.0,6.0,56,0.00,,,0.00,meteohub,2013-04-06 10:10:00,
2013-04-06 06:15:00,34.2,19.8,30.21,WNW,302,3.0,7.0,55,0.00,,,0.00,meteohub,2013-04-06 10:15:00,
2013-04-06 06:20:00,34.2,20.1,30.21,NNW,336,2.0,7.0,56,0.00,,,0.00,meteohub,2013-04-06 10:20:00,
2013-04-06 06:25:00,34.0,19.6,30.22,NW,319,7.0,7.0,55,0.00,,,0.00,meteohub,2013-04-06 10:25:00,
2013-04-06 06:30:00,34.0,18.7,30.22,NW,322,6.0,8.0,53,0.00,,,0.00,meteohub,2013-04-06 10:30:00,
2013-04-06 06:35:00,33.8,18.0,30.22,North,9,2.0,8.0,52,0.00,,,0.00,meteohub,2013-04-06 10:35:00,
2013-04-06 06:40:00,33.6,17.4,30.23,NNW,327,3.0,8.0,51,0.00,,,0.00,meteohub,2013-04-06 10:40:00,
2013-04-06 06:46:00,33.6,16.9,30.23,WNW,289,4.0,8.0,50,0.00,,,0.00,meteohub,2013-04-06 10:46:00,
2013-04-06 06:51:00,33.4,16.3,30.24,NE,38,3.0,8.0,49,0.00,,,0.00,meteohub,2013-04-06 10:51:00,
2013-04-06 06:56:00,33.4,16.9,30.25,North,0,2.0,8.0,50,0.00,,,0.00,meteohub,2013-04-06 10:56:00,
2013-04-06 07:01:00,33.4,16.9,30.26,NW,325,1.0,8.0,50,0.00,,,0.00,meteohub,2013-04-06 11:01:00,
2013-04-06 07:06:00,33.3,17.1,30.26,NNW,328,3.0,4.0,51,0.00,,,0.00,meteohub,2013-04-06 11:06:00,
2013-04-06 07:11:00,33.4,16.9,30.26,NW,308,3.0,6.0,50,0.00,,,0.00,meteohub,2013-04-06 11:11:00,
2013-04-06 07:16:00,33.4,17.2,30.27,NW,322,3.0,6.0,51,0.00,,,0.00,meteohub,2013-04-06 11:16:00,
2013-04-06 07:21:00,33.4,17.2,30.27,NW,315,2.0,6.0,51,0.00,,,0.00,meteohub,2013-04-06 11:21:00,
2013-04-06 07:26:00,33.6,16.9,30.27,NNW,330,3.0,5.0,50,0.00,,,0.00,meteohub,2013-04-06 11:26:00,
2013-04-06 07:31:00,33.8,17.1,30.27,NW,315,4.0,5.0,50,0.00,,,0.00,meteohub,2013-04-06 11:31:00,
2013-04-06 07:33:00,34.0,17.2,30.27,NW,321,2.0,5.0,50,0.00,,,0.00,meteohub,2013-04-06 11:33:00,
2013-04-06 07:38:00,34.2,17.4,30.28,NW,311,3.0,5.0,50,0.00,,,0.00,meteohub,2013-04-06 11:38:00,
2013-04-06 07:43:00,34.3,17.2,30.28,WNW,298,3.0,5.0,49,0.00,,,0.00,meteohub,2013-04-06 11:43:00,
2013-04-06 07:48:00,34.3,16.7,30.29,NNW,334,2.0,5.0,48,0.00,,,0.00,meteohub,2013-04-06 11:48:00,
2013-04-06 07:53:00,34.5,16.9,30.29,NW,323,2.0,5.0,48,0.00,,,0.00,meteohub,2013-04-06 11:53:00,
2013-04-06 07:58:00,34.5,16.3,30.29,WNW,303,4.0,5.0,47,0.00,,,0.00,meteohub,2013-04-06 11:58:00,
2013-04-06 08:03:00,34.5,15.8,30.30,NNW,331,2.0,5.0,46,0.00,,,0.00,meteohub,2013-04-06 12:03:00,
2013-04-06 08:08:00,34.7,16.0,30.30,North,355,3.0,5.0,46,0.00,,,0.00,meteohub,2013-04-06 12:08:00,
2013-04-06 08:13:00,34.9,15.6,30.31,NNW,348,4.0,5.0,45,0.00,,,0.00,meteohub,2013-04-06 12:13:00,
2013-04-06 08:18:00,35.1,15.8,30.30,NW,307,3.0,7.0,45,0.00,,,0.00,meteohub,2013-04-06 12:18:00,
2013-04-06 08:23:00,35.1,15.3,30.31,NW,318,5.0,8.0,44,0.00,,,0.00,meteohub,2013-04-06 12:23:00,
2013-04-06 08:28:00,35.2,15.4,30.31,NW,307,4.0,8.0,44,0.00,,,0.00,meteohub,2013-04-06 12:28:00,
2013-04-06 08:33:00,35.4,15.6,30.31,NNW,331,4.0,8.0,44,0.00,,,0.00,meteohub,2013-04-06 12:33:00,
2013-04-06 08:38:00,35.4,14.5,30.30,NNE,32,6.0,8.0,42,0.00,,,0.00,meteohub,2013-04-06 12:38:00,
2013-04-06 08:43:00,35.8,14.9,30.30,North,5,4.0,8.0,42,0.00,,,0.00,meteohub,2013-04-06 12:43:00,
2013-04-06 08:48:00,36.0,15.6,30.30,NNE,17,5.0,8.0,43,0.00,,,0.00,meteohub,2013-04-06 12:48:00,
2013-04-06 08:53:00,36.1,15.3,30.30,North,355,4.0,8.0,42,0.00,,,0.00,meteohub,2013-04-06 12:53:00,
2013-04-06 08:58:00,36.7,15.3,30.30,WNW,291,4.0,8.0,41,0.00,,,0.00,meteohub,2013-04-06 12:58:00,
2013-04-06 09:03:00,37.0,15.4,30.30,NNW,330,3.0,10.0,41,0.00,,,0.00,meteohub,2013-04-06 13:03:00,
2013-04-06 09:09:00,37.6,16.0,30.31,NNE,28,7.0,10.0,41,0.00,,,0.00,meteohub,2013-04-06 13:09:00,
2013-04-06 09:14:00,37.8,15.6,30.30,NNE,27,4.0,10.0,40,0.00,,,0.00,meteohub,2013-04-06 13:14:00,
2013-04-06 09:19:00,37.9,15.8,30.30,NNE,27,5.0,9.0,40,0.00,,,0.00,meteohub,2013-04-06 13:19:00,
2013-04-06 09:24:00,38.3,15.4,30.30,North,351,3.0,10.0,39,0.00,,,0.00,meteohub,2013-04-06 13:24:00,
2013-04-06 09:29:00,38.5,15.6,30.30,NNE,15,6.0,10.0,39,0.00,,,0.00,meteohub,2013-04-06 13:29:00,
2013-04-06 09:34:00,38.7,15.3,30.31,North,5,5.0,10.0,38,0.00,,,0.00,meteohub,2013-04-06 13:34:00,
2013-04-06 09:39:00,39.0,15.6,30.31,WNW,291,2.0,10.0,38,0.00,,,0.00,meteohub,2013-04-06 13:39:00,
2013-04-06 09:44:00,39.7,16.9,30.31,NW,311,3.0,10.0,39,0.00,,,0.00,meteohub,2013-04-06 13:44:00,
2013-04-06 09:49:00,40.6,17.6,30.31,NNE,26,3.0,7.0,39,0.00,,,0.00,meteohub,2013-04-06 13:49:00,
2013-04-06 09:54:00,41.4,16.3,30.31,NNW,328,3.0,7.0,36,0.00,,,0.00,meteohub,2013-04-06 13:54:00,
2013-04-06 10:00:00,41.5,16.0,30.32,North,355,4.0,7.0,35,0.00,,,0.00,meteohub,2013-04-06 14:00:00,
2013-04-06 10:05:00,41.9,16.2,30.32,NNE,32,4.0,8.0,35,0.00,,,0.00,meteohub,2013-04-06 14:05:00,
2013-04-06 10:10:00,42.3,16.5,30.32,NNW,328,2.0,8.0,35,0.00,,,0.00,meteohub,2013-04-06 14:10:00,
2013-04-06 10:15:00,42.6,16.2,30.32,WNW,298,8.0,8.0,34,0.00,,,0.00,meteohub,2013-04-06 14:15:00,
2013-04-06 10:20:00,42.8,17.1,30.32,NW,311,2.0,8.0,35,0.00,,,0.00,meteohub,2013-04-06 14:20:00,
2013-04-06 10:25:00,43.5,16.3,30.32,North,9,3.0,8.0,33,0.00,,,0.00,meteohub,2013-04-06 14:25:00,
2013-04-06 10:30:00,43.9,16.7,30.32,NNE,28,4.0,8.0,33,0.00,,,0.00,meteohub,2013-04-06 14:30:00,
2013-04-06 10:35:00,43.5,16.3,30.32,North,10,3.0,8.0,33,0.00,,,0.00,meteohub,2013-04-06 14:35:00,
2013-04-06 10:40:00,43.5,16.3,30.33,NW,317,4.0,7.0,33,0.00,,,0.00,meteohub,2013-04-06 14:40:00,
2013-04-06 10:45:00,43.9,16.0,30.33,ENE,59,3.0,8.0,32,0.00,,,0.00,meteohub,2013-04-06 14:45:00,
2013-04-06 10:50:00,43.9,16.7,30.33,NNE,13,5.0,8.0,33,0.00,,,0.00,meteohub,2013-04-06 14:50:00,
2013-04-06 10:55:00,44.2,15.4,30.33,NNW,340,2.0,8.0,31,0.00,,,0.00,meteohub,2013-04-06 14:55:00,
2013-04-06 11:00:00,45.0,16.9,30.32,NW,322,4.0,8.0,32,0.00,,,0.00,meteohub,2013-04-06 15:00:00,
2013-04-06 11:05:00,44.8,16.7,30.32,NNE,16,5.0,8.0,32,0.00,,,0.00,meteohub,2013-04-06 15:05:00,
2013-04-06 11:10:00,45.0,16.2,30.33,SE,128,3.0,7.0,31,0.00,,,0.00,meteohub,2013-04-06 15:10:00,
2013-04-06 11:16:00,44.8,17.4,30.33,North,355,1.0,7.0,33,0.00,,,0.00,meteohub,2013-04-06 15:16:00,
2013-04-06 11:21:00,46.2,17.2,30.33,NNW,337,2.0,8.0,31,0.00,,,0.00,meteohub,2013-04-06 15:21:00,
2013-04-06 11:26:00,45.3,15.6,30.33,NNW,347,3.0,8.0,30,0.00,,,0.00,meteohub,2013-04-06 15:26:00,
2013-04-06 11:31:00,46.2,16.5,30.33,SW,232,2.0,8.0,30,0.00,,,0.00,meteohub,2013-04-06 15:31:00,
2013-04-06 11:36:00,45.3,17.2,30.33,NW,306,2.0,7.0,32,0.00,,,0.00,meteohub,2013-04-06 15:36:00,
2013-04-06 11:42:00,46.0,17.8,30.33,NNW,346,2.0,7.0,32,0.00,,,0.00,meteohub,2013-04-06 15:42:00,
2013-04-06 11:47:00,46.2,16.5,30.33,NNW,334,4.0,7.0,30,0.00,,,0.00,meteohub,2013-04-06 15:47:00,
2013-04-06 11:52:00,46.9,17.1,30.33,NW,314,3.0,8.0,30,0.00,,,0.00,meteohub,2013-04-06 15:52:00,
2013-04-06 11:57:00,46.2,16.5,30.33,NW,309,5.0,8.0,30,0.00,,,0.00,meteohub,2013-04-06 15:57:00,
2013-04-06 12:02:00,45.5,15.8,30.33,NNE,24,2.0,8.0,30,0.00,,,0.00,meteohub,2013-04-06 16:02:00,
2013-04-06 12:07:00,46.9,17.8,30.33,NW,314,4.0,7.0,31,0.00,,,0.00,meteohub,2013-04-06 16:07:00,
2013-04-06 12:12:00,47.5,19.0,30.33,NNE,24,5.0,7.0,32,0.00,,,0.00,meteohub,2013-04-06 16:12:00,
2013-04-06 12:17:00,47.5,18.3,30.32,NNE,30,4.0,7.0,31,0.00,,,0.00,meteohub,2013-04-06 16:17:00,
2013-04-06 12:22:00,46.9,16.3,30.32,North,5,1.0,7.0,29,0.00,,,0.00,meteohub,2013-04-06 16:22:00,
2013-04-06 12:27:00,46.8,16.2,30.32,North,11,4.0,7.0,29,0.00,,,0.00,meteohub,2013-04-06 16:27:00,
2013-04-06 12:32:00,47.7,15.3,30.32,NNE,28,2.0,7.0,27,0.00,,,0.00,meteohub,2013-04-06 16:32:00,
2013-04-06 12:37:00,47.5,17.6,30.32,NNE,23,2.0,8.0,30,0.00,,,0.00,meteohub,2013-04-06 16:37:00,
2013-04-06 12:42:00,47.7,17.8,30.32,East,84,2.0,8.0,30,0.00,,,0.00,meteohub,2013-04-06 16:42:00,
2013-04-06 12:47:00,46.9,16.3,30.32,WNW,300,3.0,8.0,29,0.00,,,0.00,meteohub,2013-04-06 16:47:00,
2013-04-06 12:52:00,48.0,17.2,30.32,West,277,4.0,6.0,29,0.00,,,0.00,meteohub,2013-04-06 16:52:00,
2013-04-06 12:58:00,46.8,14.5,30.32,West,272,2.0,5.0,27,0.00,,,0.00,meteohub,2013-04-06 16:58:00,
2013-04-06 13:03:00,47.7,16.2,30.32,ENE,66,7.0,7.0,28,0.00,,,0.00,meteohub,2013-04-06 17:03:00,
2013-04-06 13:08:00,47.8,18.0,30.32,NW,312,3.0,8.0,30,0.00,,,0.00,meteohub,2013-04-06 17:08:00,
2013-04-06 13:13:00,48.7,19.4,30.32,NNW,343,2.0,8.0,31,0.00,,,0.00,meteohub,2013-04-06 17:13:00,
2013-04-06 13:18:00,48.2,16.5,30.32,ESE,103,2.0,8.0,28,0.00,,,0.00,meteohub,2013-04-06 17:18:00,
2013-04-06 13:23:00,47.3,18.9,30.31,SSW,198,3.0,6.0,32,0.00,,,0.00,meteohub,2013-04-06 17:23:00,
2013-04-06 13:28:00,47.3,16.7,30.31,SW,220,7.0,7.0,29,0.00,,,0.00,meteohub,2013-04-06 17:28:00,
2013-04-06 13:33:00,47.7,16.9,30.31,West,277,3.0,11.0,29,0.00,,,0.00,meteohub,2013-04-06 17:33:00,
2013-04-06 13:38:00,47.5,16.9,30.31,SW,231,0.0,11.0,29,0.00,,,0.00,meteohub,2013-04-06 17:38:00,
2013-04-06 13:43:00,47.7,16.9,30.31,NNW,330,2.0,11.0,29,0.00,,,0.00,meteohub,2013-04-06 17:43:00,
2013-04-06 13:48:00,49.5,17.8,30.31,NW,308,1.0,5.0,28,0.00,,,0.00,meteohub,2013-04-06 17:48:00,
2013-04-06 13:53:00,49.6,18.7,30.31,SW,236,6.0,6.0,29,0.00,,,0.00,meteohub,2013-04-06 17:53:00,
2013-04-06 13:58:00,48.7,17.1,30.31,West,273,7.0,9.0,28,0.00,,,0.00,meteohub,2013-04-06 17:58:00,
2013-04-06 14:03:00,48.4,16.7,30.31,SW,218,4.0,9.0,28,0.00,,,0.00,meteohub,2013-04-06 18:03:00,
2013-04-06 14:08:00,47.1,16.5,30.31,SW,227,1.0,9.0,29,0.00,,,0.00,meteohub,2013-04-06 18:08:00,
2013-04-06 14:13:00,47.8,16.3,30.31,SSW,207,5.0,7.0,28,0.00,,,0.00,meteohub,2013-04-06 18:13:00,
2013-04-06 14:18:00,47.5,16.0,30.31,South,169,3.0,6.0,28,0.00,,,0.00,meteohub,2013-04-06 18:18:00,
2013-04-06 14:23:00,47.7,17.8,30.31,SW,224,4.0,6.0,30,0.00,,,0.00,meteohub,2013-04-06 18:23:00,
2013-04-06 14:28:00,48.6,16.9,30.31,South,190,2.0,6.0,28,0.00,,,0.00,meteohub,2013-04-06 18:28:00,
2013-04-06 14:33:00,49.5,16.9,30.30,West,259,2.0,6.0,27,0.00,,,0.00,meteohub,2013-04-06 18:33:00,
2013-04-06 14:38:00,48.9,15.4,30.31,WSW,251,2.0,5.0,26,0.00,,,0.00,meteohub,2013-04-06 18:38:00,
2013-04-06 14:43:00,48.6,16.2,30.30,SSW,198,4.0,4.0,27,0.00,,,0.00,meteohub,2013-04-06 18:43:00,
2013-04-06 14:48:00,49.5,16.0,30.30,West,277,3.0,6.0,26,0.00,,,0.00,meteohub,2013-04-06 18:48:00,
2013-04-06 14:53:00,49.8,17.2,30.30,South,182,2.0,6.0,27,0.00,,,0.00,meteohub,2013-04-06 18:53:00,
2013-04-06 14:58:00,48.7,15.4,30.30,South,188,3.0,7.0,26,0.00,,,0.00,meteohub,2013-04-06 18:58:00,
2013-04-06 15:03:00,48.9,16.3,30.30,SSW,195,4.0,7.0,27,0.00,,,0.00,meteohub,2013-04-06 19:03:00,
2013-04-06 15:09:00,48.7,16.2,30.30,SSE,155,4.0,7.0,27,0.00,,,0.00,meteohub,2013-04-06 19:09:00,
2013-04-06 15:14:00,48.7,16.2,30.30,WSW,244,2.0,5.0,27,0.00,,,0.00,meteohub,2013-04-06 19:14:00,
2013-04-06 15:19:00,49.3,15.8,30.30,NNW,327,2.0,5.0,26,0.00,,,0.00,meteohub,2013-04-06 19:19:00,
2013-04-06 15:24:00,50.2,16.5,30.29,NW,326,1.0,5.0,26,0.00,,,0.00,meteohub,2013-04-06 19:24:00,
2013-04-06 15:29:00,51.1,16.5,30.29,West,271,4.0,5.0,25,0.00,,,0.00,meteohub,2013-04-06 19:29:00,
2013-04-06 15:34:00,51.1,16.5,30.29,NW,306,2.0,5.0,25,0.00,,,0.00,meteohub,2013-04-06 19:34:00,
2013-04-06 15:39:00,50.7,16.2,30.29,South,180,3.0,5.0,25,0.00,,,0.00,meteohub,2013-04-06 19:39:00,
2013-04-06 15:44:00,49.5,15.1,30.28,SSE,161,2.0,5.0,25,0.00,,,0.00,meteohub,2013-04-06 19:44:00,
2013-04-06 15:49:00,49.5,16.0,30.28,SE,131,1.0,6.0,26,0.00,,,0.00,meteohub,2013-04-06 19:49:00,
2013-04-06 15:54:00,50.2,16.5,30.28,West,259,2.0,6.0,26,0.00,,,0.00,meteohub,2013-04-06 19:54:00,
2013-04-06 16:00:00,50.4,16.7,30.28,SW,232,2.0,6.0,26,0.00,,,0.00,meteohub,2013-04-06 20:00:00,
2013-04-06 16:05:00,50.7,17.1,30.28,SSE,159,1.0,4.0,26,0.00,,,0.00,meteohub,2013-04-06 20:05:00,
2013-04-06 16:10:00,51.1,18.3,30.28,South,178,2.0,4.0,27,0.00,,,0.00,meteohub,2013-04-06 20:10:00,
2013-04-06 16:15:00,51.1,17.4,30.28,WSW,251,3.0,5.0,26,0.00,,,0.00,meteohub,2013-04-06 20:15:00,
2013-04-06 16:20:00,51.3,17.6,30.28,NW,304,1.0,6.0,26,0.00,,,0.00,meteohub,2013-04-06 20:20:00,
2013-04-06 16:25:00,51.3,16.7,30.28,WSW,242,1.0,6.0,25,0.00,,,0.00,meteohub,2013-04-06 20:25:00,
2013-04-06 16:30:00,51.1,17.4,30.28,West,272,2.0,5.0,26,0.00,,,0.00,meteohub,2013-04-06 20:30:00,
2013-04-06 16:35:00,51.4,18.5,30.28,NW,315,0.0,5.0,27,0.00,,,0.00,meteohub,2013-04-06 20:35:00,
2013-04-06 16:40:00,52.0,19.0,30.28,SSW,201,4.0,7.0,27,0.00,,,0.00,meteohub,2013-04-06 20:40:00,
2013-04-06 16:45:00,51.3,17.6,30.28,South,182,4.0,7.0,26,0.00,,,0.00,meteohub,2013-04-06 20:45:00,
2013-04-06 16:50:00,50.7,17.1,30.28,North,5,2.0,7.0,26,0.00,,,0.00,meteohub,2013-04-06 20:50:00,
2013-04-06 16:55:00,51.4,16.7,30.28,SSW,197,1.0,7.0,25,0.00,,,0.00,meteohub,2013-04-06 20:55:00,
2013-04-06 17:00:00,51.3,18.3,30.28,SSW,196,1.0,6.0,27,0.00,,,0.00,meteohub,2013-04-06 21:00:00,
2013-04-06 17:05:00,50.9,18.9,30.28,SW,221,6.0,6.0,28,0.00,,,0.00,meteohub,2013-04-06 21:05:00,
2013-04-06 17:10:00,50.5,16.0,30.28,South,176,0.0,6.0,25,0.00,,,0.00,meteohub,2013-04-06 21:10:00,
2013-04-06 17:15:00,50.4,16.7,30.28,NE,36,1.0,6.0,26,0.00,,,0.00,meteohub,2013-04-06 21:15:00,
2013-04-06 17:20:00,50.5,16.9,30.28,SSE,151,2.0,6.0,26,0.00,,,0.00,meteohub,2013-04-06 21:20:00,
2013-04-06 17:26:00,50.5,16.9,30.28,SSE,158,2.0,4.0,26,0.00,,,0.00,meteohub,2013-04-06 21:26:00,
2013-04-06 17:31:00,50.7,17.1,30.28,South,190,3.0,4.0,26,0.00,,,0.00,meteohub,2013-04-06 21:31:00,
2013-04-06 17:36:00,50.5,16.0,30.28,SE,140,1.0,5.0,25,0.00,,,0.00,meteohub,2013-04-06 21:36:00,
2013-04-06 17:41:00,50.5,16.0,30.28,NNE,15,2.0,5.0,25,0.00,,,0.00,meteohub,2013-04-06 21:41:00,
2013-04-06 17:46:00,50.5,16.0,30.28,NW,317,0.0,5.0,25,0.00,,,0.00,meteohub,2013-04-06 21:46:00,
2013-04-06 17:51:00,50.7,16.2,30.28,SSW,209,1.0,3.0,25,0.00,,,0.00,meteohub,2013-04-06 21:51:00,
2013-04-06 17:57:00,50.7,16.2,30.28,SSE,153,2.0,3.0,25,0.00,,,0.00,meteohub,2013-04-06 21:57:00,
2013-04-06 18:02:00,50.5,16.9,30.28,South,189,2.0,3.0,26,0.00,,,0.00,meteohub,2013-04-06 22:02:00,
2013-04-06 18:07:00,50.5,16.0,30.28,South,184,2.0,4.0,25,0.00,,,0.00,meteohub,2013-04-06 22:07:00,
2013-04-06 18:12:00,50.4,16.7,30.28,SSW,194,1.0,4.0,26,0.00,,,0.00,meteohub,2013-04-06 22:12:00,
2013-04-06 18:17:00,50.5,18.7,30.28,SSW,206,3.0,4.0,28,0.00,,,0.00,meteohub,2013-04-06 22:17:00,
2013-04-06 18:22:00,50.5,16.9,30.28,SSW,213,1.0,4.0,26,0.00,,,0.00,meteohub,2013-04-06 22:22:00,
2013-04-06 18:27:00,50.4,16.7,30.29,WSW,256,0.0,3.0,26,0.00,,,0.00,meteohub,2013-04-06 22:27:00,
2013-04-06 18:32:00,50.2,17.4,30.29,SW,236,1.0,3.0,27,0.00,,,0.00,meteohub,2013-04-06 22:32:00,
2013-04-06 18:37:00,50.2,18.3,30.29,South,181,3.0,3.0,28,0.00,,,0.00,meteohub,2013-04-06 22:37:00,
2013-04-06 18:42:00,49.8,18.9,30.29,South,190,1.0,3.0,29,0.00,,,0.00,meteohub,2013-04-06 22:42:00,
2013-04-06 18:47:00,49.8,18.9,30.29,South,189,1.0,3.0,29,0.00,,,0.00,meteohub,2013-04-06 22:47:00,
2013-04-06 18:52:00,49.6,18.7,30.29,SSE,163,2.0,3.0,29,0.00,,,0.00,meteohub,2013-04-06 22:52:00,
2013-04-06 18:57:00,49.5,16.9,30.29,South,178,1.0,3.0,27,0.00,,,0.00,meteohub,2013-04-06 22:57:00,
2013-04-06 19:02:00,49.3,16.7,30.29,South,178,1.0,3.0,27,0.00,,,0.00,meteohub,2013-04-06 23:02:00,
2013-04-06 19:07:00,48.9,16.3,30.29,South,178,1.0,3.0,27,0.00,,,0.00,meteohub,2013-04-06 23:07:00,
2013-04-06 19:12:00,48.7,18.0,30.29,South,178,0.0,2.0,29,0.00,,,0.00,meteohub,2013-04-06 23:12:00,
2013-04-06 19:17:00,48.6,19.9,30.29,South,178,0.0,2.0,32,0.00,,,0.00,meteohub,2013-04-06 23:17:00,
2013-04-06 19:22:00,48.4,20.7,30.29,South,178,0.0,2.0,33,0.00,,,0.00,meteohub,2013-04-06 23:22:00,
2013-04-06 19:27:00,48.0,18.9,30.28,South,178,0.0,1.0,31,0.00,,,0.00,meteohub,2013-04-06 23:27:00,
2013-04-06 19:32:00,47.7,19.2,30.29,South,178,1.0,1.0,32,0.00,,,0.00,meteohub,2013-04-06 23:32:00,
2013-04-06 19:37:00,47.1,18.7,30.29,South,178,0.0,1.0,32,0.00,,,0.00,meteohub,2013-04-06 23:37:00,
2013-04-06 19:42:00,46.6,18.3,30.29,South,178,0.0,1.0,32,0.00,,,0.00,meteohub,2013-04-06 23:42:00,
2013-04-06 19:47:00,45.9,18.3,30.28,South,178,0.0,1.0,33,0.00,,,0.00,meteohub,2013-04-06 23:47:00,
2013-04-06 19:52:00,45.3,19.9,30.28,South,178,0.0,1.0,36,0.00,,,0.00,meteohub,2013-04-06 23:52:00,
2013-04-06 19:57:00,45.0,19.6,30.28,South,178,0.0,0.0,36,0.00,,,0.00,meteohub,2013-04-06 23:57:00,
2013-04-06 20:02:00,44.4,21.0,30.28,South,178,0.0,0.0,39,0.00,,,0.00,meteohub,2013-04-07 00:02:00,
2013-04-06 20:07:00,43.9,23.9,30.28,South,178,0.0,0.0,45,0.00,,,0.00,meteohub,2013-04-07 00:07:00,
2013-04-06 20:12:00,43.3,22.3,30.29,South,178,0.0,0.0,43,0.00,,,0.00,meteohub,2013-04-07 00:12:00,
2013-04-06 20:17:00,42.8,23.0,30.29,South,178,0.0,0.0,45,0.00,,,0.00,meteohub,2013-04-07 00:17:00,
2013-04-06 20:22:00,42.4,24.6,30.29,South,178,0.0,1.0,49,0.00,,,0.00,meteohub,2013-04-07 00:22:00,
2013-04-06 20:27:00,41.7,21.9,30.29,South,178,0.0,1.0,45,0.00,,,0.00,meteohub,2013-04-07 00:27:00,
2013-04-06 20:33:00,41.4,20.5,30.29,SSE,162,0.0,1.0,43,0.00,,,0.00,meteohub,2013-04-07 00:33:00,
2013-04-06 20:38:00,41.2,20.8,30.29,ESE,119,1.0,2.0,44,0.00,,,0.00,meteohub,2013-04-07 00:38:00,
2013-04-06 20:43:00,41.2,19.8,30.29,ESE,119,2.0,2.0,42,0.00,,,0.00,meteohub,2013-04-07 00:43:00,
2013-04-06 20:48:00,41.4,20.5,30.30,SSE,166,2.0,2.0,43,0.00,,,0.00,meteohub,2013-04-07 00:48:00,
2013-04-06 20:53:00,42.1,20.7,30.30,SSE,167,1.0,3.0,42,0.00,,,0.00,meteohub,2013-04-07 00:53:00,
2013-04-06 20:58:00,42.6,19.9,30.30,SSE,148,2.0,3.0,40,0.00,,,0.00,meteohub,2013-04-07 00:58:00,
2013-04-06 21:03:00,43.2,19.9,30.30,ESE,109,2.0,3.0,39,0.00,,,0.00,meteohub,2013-04-07 01:03:00,
2013-04-06 21:08:00,43.5,20.8,30.30,SSE,156,0.0,3.0,40,0.00,,,0.00,meteohub,2013-04-07 01:08:00,
2013-04-06 21:13:00,43.7,21.0,30.30,SSE,150,0.0,3.0,40,0.00,,,0.00,meteohub,2013-04-07 01:13:00,
2013-04-06 21:18:00,43.7,21.0,30.30,SSE,153,0.0,3.0,40,0.00,,,0.00,meteohub,2013-04-07 01:18:00,
2013-04-06 21:23:00,43.5,20.1,30.30,SSE,153,1.0,3.0,39,0.00,,,0.00,meteohub,2013-04-07 01:23:00,
2013-04-06 21:28:00,43.5,20.8,30.30,SSE,153,2.0,3.0,40,0.00,,,0.00,meteohub,2013-04-07 01:28:00,
2013-04-06 21:33:00,43.3,21.2,30.30,SE,134,1.0,3.0,41,0.00,,,0.00,meteohub,2013-04-07 01:33:00,
2013-04-06 21:38:00,43.2,20.5,30.31,SE,134,0.0,3.0,40,0.00,,,0.00,meteohub,2013-04-07 01:38:00,
2013-04-06 21:43:00,43.0,21.4,30.30,SE,134,0.0,3.0,42,0.00,,,0.00,meteohub,2013-04-07 01:43:00,
2013-04-06 21:48:00,42.6,21.2,30.30,SE,134,1.0,2.0,42,0.00,,,0.00,meteohub,2013-04-07 01:48:00,
2013-04-06 21:53:00,42.4,21.6,30.30,SSE,160,1.0,3.0,43,0.00,,,0.00,meteohub,2013-04-07 01:53:00,
2013-04-06 21:59:00,42.3,21.4,30.30,SSE,160,0.0,3.0,43,0.00,,,0.00,meteohub,2013-04-07 01:59:00,
2013-04-06 22:04:00,42.1,21.7,30.30,SSE,159,1.0,3.0,44,0.00,,,0.00,meteohub,2013-04-07 02:04:00,
2013-04-06 22:09:00,41.7,21.4,30.30,SSE,158,1.0,2.0,44,0.00,,,0.00,meteohub,2013-04-07 02:09:00,
2013-04-06 22:14:00,41.7,20.8,30.30,SSE,158,0.0,2.0,43,0.00,,,0.00,meteohub,2013-04-07 02:14:00,
2013-04-06 22:19:00,41.7,21.4,30.30,SSE,158,0.0,2.0,44,0.00,,,0.00,meteohub,2013-04-07 02:19:00,
2013-04-06 22:24:00,41.5,20.7,30.30,SSE,158,0.0,2.0,43,0.00,,,0.00,meteohub,2013-04-07 02:24:00,
2013-04-06 22:30:00,41.4,21.0,30.31,SSE,158,0.0,2.0,44,0.00,,,0.00,meteohub,2013-04-07 02:30:00,
2013-04-06 22:35:00,41.2,20.8,30.30,South,169,2.0,2.0,44,0.00,,,0.00,meteohub,2013-04-07 02:35:00,
2013-04-06 22:40:00,41.2,21.9,30.30,ESE,109,1.0,4.0,46,0.00,,,0.00,meteohub,2013-04-07 02:40:00,
2013-04-06 22:45:00,41.2,21.4,30.30,ESE,123,0.0,4.0,45,0.00,,,0.00,meteohub,2013-04-07 02:45:00,
2013-04-06 22:50:00,41.2,21.4,30.30,SSE,148,0.0,3.0,45,0.00,,,0.00,meteohub,2013-04-07 02:50:00,
2013-04-06 22:55:00,41.2,21.4,30.30,SSE,148,1.0,3.0,45,0.00,,,0.00,meteohub,2013-04-07 02:55:00,
2013-04-06 23:00:00,40.8,22.6,30.30,SSE,148,2.0,3.0,48,0.00,,,0.00,meteohub,2013-04-07 03:00:00,
2013-04-06 23:05:00,40.5,21.7,30.30,SE,136,2.0,4.0,47,0.00,,,0.00,meteohub,2013-04-07 03:05:00,
2013-04-06 23:10:00,40.3,23.2,30.30,SE,140,1.0,4.0,50,0.00,,,0.00,meteohub,2013-04-07 03:10:00,
2013-04-06 23:15:00,40.3,23.5,30.30,SE,138,2.0,4.0,51,0.00,,,0.00,meteohub,2013-04-07 03:15:00,
2013-04-06 23:20:00,40.1,24.8,30.30,SE,124,0.0,4.0,54,0.00,,,0.00,meteohub,2013-04-07 03:20:00,
2013-04-06 23:25:00,39.9,25.0,30.30,SSE,157,1.0,4.0,55,0.00,,,0.00,meteohub,2013-04-07 03:25:00,
2013-04-06 23:30:00,39.9,25.5,30.30,SE,136,1.0,4.0,56,0.00,,,0.00,meteohub,2013-04-07 03:30:00,
2013-04-06 23:35:00,39.7,25.7,30.30,SE,134,2.0,4.0,57,0.00,,,0.00,meteohub,2013-04-07 03:35:00,
2013-04-06 23:40:00,39.7,26.6,30.30,SE,134,0.0,3.0,59,0.00,,,0.00,meteohub,2013-04-07 03:40:00,
2013-04-06 23:45:00,39.6,26.1,30.30,SE,143,2.0,4.0,58,0.00,,,0.00,meteohub,2013-04-07 03:45:00,
2013-04-06 23:50:00,39.6,26.4,30.30,SE,144,1.0,4.0,59,0.00,,,0.00,meteohub,2013-04-07 03:50:00,
2013-04-06 23:55:00,39.4,26.2,30.30,SSE,150,2.0,4.0,59,0.00,,,0.00,meteohub,2013-04-07 03:55:00,